When you browse on this site, cookies collect data to enhance your experience and personalize the content and advertising you see.
Visit our Privacy Policy to learn more. By continuing to use the site, you agree to this use of cookies and data.
  • In Latvia
  • List of Countries
  • For 7 days
  • Water Temperature
  • Satellite Maps
  • Weather Map
  • Weather Widgets
  • user-avatar
    Login

    Hourly Weather Melenki

    Today, 21 March, Thursday

    Time Temperature Precipitation Wind Pressure Humidity
    00:00 -3°C° 0 mm 2 mps 745 mmHg 89%
    01:00 -4°C° 0 mm 3 mps 745 mmHg 87%
    02:00 -4°C° 0 mm 3 mps 745 mmHg 88%
    03:00 -4°C° 0.1 mm 3 mps 744 mmHg 89%
    04:00 -2°C° 0.1 mm 3 mps 744 mmHg 90%
    05:00 -2°C° 0.1 mm 3 mps 743 mmHg 91%
    06:00 -2°C° 0.1 mm 3 mps 743 mmHg 90%
    07:00 -1°C° 0.1 mm 3 mps 743 mmHg 89%
    08:00 0°C° 0.1 mm 3 mps 743 mmHg 88%
    09:00 0°C° 0 mm 3 mps 744 mmHg 86%
    10:00 +1°C° 0 mm 3 mps 744 mmHg 84%
    11:00 +1°C° 0 mm 3 mps 744 mmHg 82%
    12:00 +2°C° 0 mm 3 mps 744 mmHg 81%
    13:00 +2°C° 0 mm 3 mps 744 mmHg 79%
    14:00 +2°C° 0 mm 3 mps 744 mmHg 77%
    15:00 +2°C° 0 mm 3 mps 744 mmHg 80%
    16:00 +2°C° 0 mm 2 mps 744 mmHg 83%
    17:00 +2°C° 0 mm 2 mps 744 mmHg 85%
    18:00 +1°C° 0 mm 2 mps 744 mmHg 88%
    19:00 -1°C° 0 mm 2 mps 744 mmHg 90%
    20:00 +1°C° 0 mm 1 mps 744 mmHg 93%
    21:00 -1°C° 0 mm 2 mps 743 mmHg 93%
    22:00 -1°C° 0 mm 2 mps 743 mmHg 93%
    23:00 -1°C° 0 mm 2 mps 742 mmHg 93%

    Tomorrow, 22 March, Friday

    Time Temperature Precipitation Wind Pressure Humidity
    00:00 -1°C° 0 mm 2 mps 742 mmHg 92%
    01:00 0°C° 0 mm 3 mps 741 mmHg 92%
    02:00 0°C° 0 mm 3 mps 740 mmHg 91%
    03:00 0°C° 0.4 mm 3 mps 739 mmHg 91%
    04:00 0°C° 0.4 mm 4 mps 738 mmHg 91%
    05:00 0°C° 0.4 mm 4 mps 737 mmHg 91%
    06:00 0°C° 1.3 mm 5 mps 736 mmHg 89%
    07:00 +1°C° 1.3 mm 6 mps 736 mmHg 87%
    08:00 0°C° 1.3 mm 7 mps 735 mmHg 85%
    09:00 -1°C° 0.4 mm 7 mps 736 mmHg 81%
    10:00 -2°C° 0.4 mm 8 mps 736 mmHg 77%
    11:00 -2°C° 0.4 mm 8 mps 737 mmHg 73%
    12:00 -2°C° 0 mm 8 mps 738 mmHg 71%
    13:00 -2°C° 0 mm 7 mps 739 mmHg 69%
    14:00 -2°C° 0 mm 7 mps 739 mmHg 68%
    15:00 -3°C° 0.1 mm 7 mps 740 mmHg 70%
    16:00 -3°C° 0.1 mm 6 mps 740 mmHg 73%
    17:00 -3°C° 0.1 mm 6 mps 740 mmHg 75%
    18:00 -3°C° 0.1 mm 6 mps 741 mmHg 77%
    19:00 -3°C° 0.1 mm 6 mps 741 mmHg 79%
    20:00 -3°C° 0.1 mm 6 mps 742 mmHg 81%
    21:00 -3°C° 0 mm 6 mps 742 mmHg 82%
    22:00 -2°C° 0 mm 5 mps 742 mmHg 83%
    23:00 -2°C° 0 mm 5 mps 743 mmHg 84%

    Day after tomorrow, 23 March, Saturday

    Time Temperature Precipitation Wind Pressure Humidity
    00:00 -2°C° 0 mm 5 mps 743 mmHg 85%
    01:00 -2°C° 0 mm 5 mps 744 mmHg 85%
    02:00 -2°C° 0 mm 4 mps 744 mmHg 86%
    03:00 -2°C° 0 mm 4 mps 745 mmHg 87%
    04:00 -2°C° 0 mm 4 mps 746 mmHg 88%
    05:00 -3°C° 0 mm 4 mps 746 mmHg 89%
    06:00 -1°C° 0 mm 3 mps 747 mmHg 89%
    07:00 -1°C° 0 mm 3 mps 747 mmHg 88%
    08:00 -1°C° 0 mm 3 mps 748 mmHg 87%
    09:00 +1°C° 0 mm 2 mps 748 mmHg 84%
    10:00 +2°C° 0 mm 2 mps 748 mmHg 82%
    11:00 +2°C° 0 mm 2 mps 748 mmHg 79%
    12:00 +4°C° 0 mm 1 mps 748 mmHg 78%
    13:00 +4°C° 0 mm 1 mps 747 mmHg 77%
    14:00 +4°C° 0 mm 1 mps 747 mmHg 75%
    15:00 +4°C° 0 mm 1 mps 747 mmHg 78%
    16:00 +3°C° 0 mm 1 mps 746 mmHg 82%
    17:00 +3°C° 0 mm 1 mps 746 mmHg 85%
    18:00 +1°C° 0 mm 2 mps 745 mmHg 86%
    19:00 +1°C° 0 mm 2 mps 745 mmHg 88%
    20:00 -1°C° 0 mm 2 mps 745 mmHg 89%
    21:00 -1°C° 0 mm 3 mps 744 mmHg 88%
    22:00 -1°C° 0 mm 3 mps 743 mmHg 87%
    23:00 0°C° 0 mm 3 mps 743 mmHg 87%

    24 March, Sunday

    Time Temperature Precipitation Wind Pressure Humidity
    00:00 0°C° 0.5 mm 3 mps 742 mmHg 87%
    01:00 0°C° 0.5 mm 3 mps 742 mmHg 88%
    02:00 0°C° 0.5 mm 3 mps 741 mmHg 89%
    03:00 0°C° 0.5 mm 3 mps 741 mmHg 90%
    04:00 0°C° 0.5 mm 3 mps 740 mmHg 91%
    05:00 0°C° 0.5 mm 3 mps 740 mmHg 92%
    06:00 0°C° 0 mm 3 mps 740 mmHg 90%
    07:00 +1°C° 0 mm 3 mps 740 mmHg 88%
    08:00 0°C° 0 mm 4 mps 740 mmHg 86%
    09:00 +1°C° 0 mm 4 mps 740 mmHg 79%
    10:00 +1°C° 0 mm 4 mps 740 mmHg 72%
    11:00 +3°C° 0 mm 4 mps 740 mmHg 65%
    12:00 +3°C° 0.3 mm 4 mps 740 mmHg 66%
    13:00 +1°C° 0.3 mm 5 mps 740 mmHg 66%
    14:00 +1°C° 0.3 mm 5 mps 740 mmHg 67%
    15:00 0°C° 0.1 mm 5 mps 740 mmHg 70%
    16:00 0°C° 0.1 mm 4 mps 741 mmHg 72%
    17:00 -1°C° 0.1 mm 4 mps 741 mmHg 75%
    18:00 -1°C° 0 mm 3 mps 741 mmHg 77%
    19:00 -2°C° 0 mm 3 mps 741 mmHg 79%
    20:00 -4°C° 0 mm 3 mps 742 mmHg 80%
    21:00 -4°C° 0 mm 3 mps 742 mmHg 81%
    22:00 -4°C° 0 mm 3 mps 742 mmHg 81%
    23:00 -5°C° 0 mm 3 mps 742 mmHg 82%

    25 March, Monday

    Time Temperature Precipitation Wind Pressure Humidity
    00:00 -5°C° 0 mm 3 mps 742 mmHg 83%
    01:00 -5°C° 0 mm 3 mps 742 mmHg 84%
    02:00 -6°C° 0 mm 3 mps 742 mmHg 85%
    03:00 -6°C° 0 mm 3 mps 742 mmHg 86%
    04:00 -6°C° 0 mm 3 mps 741 mmHg 87%
    05:00 -5°C° 0 mm 2 mps 741 mmHg 88%
    06:00 -4°C° 0 mm 2 mps 741 mmHg 84%
    07:00 -4°C° 0 mm 2 mps 741 mmHg 81%
    08:00 -3°C° 0 mm 2 mps 741 mmHg 78%
    09:00 -2°C° 0 mm 2 mps 741 mmHg 71%
    10:00 -1°C° 0 mm 2 mps 741 mmHg 64%
    11:00 +2°C° 0 mm 2 mps 741 mmHg 57%
    12:00 +2°C° 0 mm 2 mps 740 mmHg 55%
    13:00 +3°C° 0 mm 2 mps 740 mmHg 54%
    14:00 +3°C° 0 mm 2 mps 740 mmHg 52%
    15:00 +4°C° 0 mm 1 mps 739 mmHg 56%
    16:00 +3°C° 0 mm 1 mps 739 mmHg 61%
    17:00 +2°C° 0 mm 1 mps 738 mmHg 66%
    18:00 +1°C° 0 mm 1 mps 738 mmHg 69%
    19:00 0°C° 0 mm 1 mps 738 mmHg 72%
    20:00 -2°C° 0 mm 2 mps 738 mmHg 75%
    21:00 -3°C° 0 mm 2 mps 738 mmHg 76%
    22:00 -3°C° 0 mm 2 mps 738 mmHg 76%
    23:00 -3°C° 0 mm 2 mps 737 mmHg 76%

    26 March, Tuesday

    Time Temperature Precipitation Wind Pressure Humidity
    00:00 -3°C° 0 mm 2 mps 737 mmHg 75%
    01:00 -3°C° 0 mm 2 mps 737 mmHg 75%
    02:00 -3°C° 0 mm 2 mps 737 mmHg 74%
    03:00 -3°C° 0 mm 2 mps 737 mmHg 74%
    04:00 -3°C° 0 mm 2 mps 736 mmHg 75%
    05:00 -4°C° 0 mm 3 mps 736 mmHg 75%
    06:00 -4°C° 0 mm 3 mps 736 mmHg 72%
    07:00 -2°C° 0 mm 3 mps 736 mmHg 70%
    08:00 -1°C° 0 mm 3 mps 737 mmHg 67%
    09:00 -1°C° 0 mm 4 mps 737 mmHg 63%
    10:00 0°C° 0 mm 4 mps 737 mmHg 59%
    11:00 +1°C° 0 mm 4 mps 737 mmHg 55%
    12:00 +1°C° 0 mm 4 mps 737 mmHg 53%
    13:00 +1°C° 0 mm 4 mps 737 mmHg 51%
    14:00 +3°C° 0 mm 4 mps 737 mmHg 50%
    15:00 +1°C° 0.1 mm 4 mps 737 mmHg 55%
    16:00 +1°C° 0.1 mm 3 mps 737 mmHg 61%
    17:00 0°C° 0.1 mm 3 mps 737 mmHg 67%
    18:00 0°C° 0.1 mm 3 mps 738 mmHg 71%
    19:00 -1°C° 0.1 mm 3 mps 738 mmHg 76%
    20:00 -2°C° 0.1 mm 3 mps 738 mmHg 81%
    21:00 -2°C° 0.2 mm 3 mps 738 mmHg 84%
    22:00 -2°C° 0.2 mm 2 mps 738 mmHg 87%
    23:00 -2°C° 0.2 mm 2 mps 739 mmHg 91%
    Show more